Theta_e
324 325 325 323 322 324 325 322 321 321 322 323 322 321 320 320 319 317 317 317 322 322 319 320 319 317 316 316 316 316 316 315
324 325 324 321 321 322 322 319 320 321 321 321 319 318 318 318 319 319 319 318 321 321 321 321 321 318 319 318 317 317 316 316
321 321 322 321 319 320 320 319 319 321 323 324 322 320 320 319 318 318 317 318 318 319 321 322 322 321 318 319 320 319 320 317
320 319 320 321 318 319 318 320 319 320 322 323 321 321 320 317 317 316 318 318 319 318 320 321 320 322 320 321 320 319 317 318
321 319 320 320 320 319 319 320 319 320 321 321 321 319 315 318 316 317 317 318 318 320 321 323 323 323 323 323 322 322 322 318
320 320 321 321 322 316 319 321 320 320 320 322 321 318 319 321 318 317 317 318 320 319 320 321 322 325 325 326 325 323 323 322
321 322 322 321 322 321 320 319 319 322 319 320 320 318 316 317 316 316 316 316 316 319 319 323 323 325 325 327 328 326 325 324
320 320 320 320 320 320 319 320 318 320 321 320 321 320 317 317 318 318 315 316 316 317 318 320 323 325 327 327 327 328 326 325
319 321 321 321 320 320 317 320 321 321 320 321 322 321 320 322 324 323 320 318 318 318 319 320 323 325 326 326 328 327 328 327
319 321 322 322 321 320 319 319 321 322 322 323 323 324 323 323 323 325 323 322 322 321 325 324 326 326 325 326 325 325 326 327
318 320 321 322 322 322 320 320 320 322 322 323 323 323 323 324 325 324 325 325 324 325 325 326 325 324 324 324 324 325 324 327
318 320 322 323 324 322 321 320 320 321 322 323 322 323 324 324 324 324 324 325 324 323 323 323 322 322 323 324 324 324 323 323
319 320 321 322 322 322 321 321 320 321 322 323 323 323 322 324 325 325 326 325 325 323 323 321 322 322 323 323 323 322 319 319
318 321 321 321 321 322 322 322 322 322 322 322 322 322 322 321 321 323 323 322 323 322 323 323 323 323 323 323 322 320 319 319
314 319 321 322 322 322 322 322 323 323 322 321 321 322 323 322 322 321 322 321 320 320 323 322 323 322 321 322 322 322 322 320
312 314 319 322 322 323 322 323 322 323 322 321 322 321 322 322 321 321 322 322 320 321 321 322 323 322 321 319 319 319 318 316
311 313 314 318 321 323 323 322 322 323 321 322 322 322 321 321 321 322 322 322 321 322 321 322 323 320 306 301 312 318 315 311
311 312 312 314 318 322 322 323 324 322 322 322 322 322 321 321 321 320 320 320 321 320 322 321 321 322 300 298 298 318 312 307
312 314 314 315 317 320 323 324 322 322 321 321 322 321 321 321 321 320 320 320 320 321 321 321 321 320 297 297 295 307 301 297
Wind_Speed
12 11 9 6 7 8 9 7 10 9 7 6 5 9 8 5 8 9 14 12 12 10 12 11 10 10 9 8 9 6 7 7
12 12 10 8 8 9 8 9 11 9 8 9 6 9 10 7 7 14 14 14 16 10 9 12 11 9 10 9 8 7 5 5
14 13 12 11 11 10 10 12 12 11 10 10 4 10 9 7 7 11 10 11 11 8 12 10 11 6 8 6 9 6 4 6
16 16 15 13 13 14 11 12 12 10 9 9 7 6 7 5 6 7 8 10 11 10 8 9 7 7 7 9 10 11 7 6
16 18 18 16 15 13 12 13 13 10 11 11 16 9 10 9 8 7 8 9 11 13 9 9 8 9 11 11 10 9 10 8
19 19 18 17 15 14 13 15 14 14 13 13 12 11 10 7 8 8 9 9 11 10 9 9 11 10 11 11 11 12 10 9
18 17 17 17 16 16 16 17 16 16 15 14 16 16 11 10 11 11 8 8 6 8 8 8 10 9 11 11 13 13 12 11
19 21 20 19 20 19 16 19 18 17 18 16 18 18 15 17 17 14 14 10 9 12 13 11 9 12 13 12 10 13 13 13
19 20 20 20 21 21 19 21 21 21 20 20 16 16 11 14 18 16 13 12 14 16 14 14 15 15 14 12 11 10 11 10
19 21 20 20 20 22 22 22 21 21 22 19 20 18 19 17 19 18 15 17 15 17 20 19 19 18 18 15 12 12 12 13
15 18 20 18 18 19 21 21 21 21 21 20 18 20 21 19 17 19 18 17 19 19 19 19 19 17 17 17 14 15 15 12
12 15 17 18 17 19 19 21 23 22 21 21 21 20 22 20 17 18 19 18 20 20 20 19 19 19 19 17 18 17 16 12
10 14 16 18 19 19 21 21 21 21 21 22 21 19 21 20 20 20 19 20 19 20 20 21 21 20 19 19 18 13 12 12
8 12 15 17 19 20 21 21 21 20 20 20 20 19 21 22 23 21 21 21 21 21 21 21 21 20 20 18 16 15 14 17
7 11 14 16 17 19 20 20 20 20 20 21 21 22 22 21 20 21 20 20 21 21 20 19 19 19 19 18 18 15 14 13
10 10 12 15 17 18 18 19 20 20 22 22 22 21 20 20 20 21 20 20 20 21 18 20 19 18 14 15 14 15 14 13
13 13 12 14 17 18 17 19 20 21 21 22 20 20 20 21 20 19 19 19 20 20 20 19 18 12 13 16 15 13 12 11
13 12 12 12 15 16 19 19 17 19 20 20 20 20 20 20 19 19 19 19 18 19 17 18 19 18 14 16 16 11 10 11
15 11 8 11 12 14 15 16 19 19 19 19 18 19 18 18 18 19 19 17 17 15 16 17 16 12 13 16 16 8 6 8
Wind_Direction
196 204 205 200 194 206 189 157 159 154 146 123 124 135 127 120 147 164 162 164 150 147 157 155 166 166 154 157 148 170 188 172
188 195 191 186 196 195 170 158 165 157 161 149 141 142 145 139 163 160 166 166 148 163 148 164 166 161 154 143 146 184 178 175
183 187 194 196 192 194 172 177 170 179 181 166 139 149 153 145 150 153 152 172 139 131 163 156 173 148 115 149 168 185 182 185
188 186 191 191 193 194 181 179 178 184 191 160 123 118 140 137 144 150 161 162 159 153 175 170 156 132 179 182 185 195 193 186
190 192 188 194 188 191 184 182 180 178 183 162 166 158 163 169 168 170 161 175 171 177 175 188 138 198 201 196 195 209 220 196
193 196 188 187 181 188 190 187 184 176 181 185 178 171 174 170 178 170 178 181 192 177 174 196 189 203 211 205 204 211 217 228
194 191 186 184 183 177 193 189 185 184 182 181 180 173 167 169 178 190 189 184 196 183 201 197 206 212 214 213 210 209 212 227
192 189 190 182 185 184 189 191 184 190 186 185 181 180 173 181 181 187 183 188 190 201 218 212 212 221 228 221 216 219 213 223
196 195 193 189 183 188 187 195 187 189 191 190 188 183 183 189 194 189 188 192 193 202 207 213 221 227 234 234 238 236 229 228
196 194 196 192 189 190 189 194 194 191 191 194 195 194 194 196 192 193 192 194 195 200 207 209 215 218 224 228 228 229 226 234
198 196 195 196 193 191 190 196 196 193 194 197 197 196 199 201 194 197 196 198 202 200 203 210 212 216 223 229 231 232 236 233
191 194 194 196 193 194 196 199 196 195 198 197 199 199 197 200 200 197 202 201 202 206 209 214 218 222 225 229 233 237 235 234
185 185 188 195 198 198 198 200 202 202 197 198 201 200 203 206 208 207 204 209 209 212 216 220 223 227 230 232 233 224 224 216
188 188 191 197 199 201 203 203 206 201 201 205 203 203 203 208 212 215 214 218 220 220 222 225 226 230 232 233 225 215 222 237
221 207 203 200 201 203 205 205 205 204 205 205 208 207 208 209 210 212 215 218 220 223 223 226 228 228 225 220 223 230 236 234
255 222 212 207 204 205 207 206 203 204 206 209 210 209 214 216 215 214 213 213 218 220 218 221 223 224 223 216 208 219 226 221
276 250 227 215 209 209 204 207 203 200 208 213 213 210 210 214 214 217 219 216 218 221 222 221 219 222 211 210 205 216 203 203
274 257 245 235 222 211 209 206 199 205 207 210 210 211 213 214 214 213 218 220 218 223 224 223 228 227 193 202 198 217 198 191
297 292 277 260 245 216 221 203 200 205 211 208 206 208 211 210 211 214 214 215 217 223 228 230 233 231 184 196 197 197 164 153